Cape Cod CGAS, MA

12:51 PM EDT on March 28, 2017 (GMT -0400)
Cape Cod Coast Guard Air Station

Weather History for KFMH - May, 2014

Change the Weather History Date:

Friday, May 16, 2014

  Actual Average Record
Temperature  
Mean Temperature 64 °F -  
Max Temperature 73 °F 60 °F 73 °F (2004)
Min Temperature 54 °F 44 °F 37 °F (1999)
Degree Days  
Heating Degree Days 2    
Growing Degree Days 14 (Base 50)    
Moisture  
Dew Point 59 °F    
Average Humidity 82    
Maximum Humidity 94    
Minimum Humidity 61    
Precipitation  
Precipitation 0.00 in - - ()
Sea Level Pressure  
Sea Level Pressure 30.13 in    
Wind  
Wind Speed 15 mph (SSE)    
Max Wind Speed 29 mph    
Max Gust Speed 36 mph    
Visibility 9 miles    
Events Rain    
Averages and records for this station are not official NWS values.
T = Trace of Precipitation, MM = Missing Value Source: NWS Daily Summary

Daily Weather History Graph

Daily Weather History Graph

Search for Another Location

Airport or City:

Trip Planner

Search our weather history database for the weather conditions in past years. The results will help you decide how hot, cold, wet, or windy it might be!

Date:

Astronomy

May. 16, 2014 Rise Set
Actual Time 5:21 AM EDT 7:55 PM EDT
Civil Twilight 4:49 AM EDT 8:27 PM EDT
Nautical Twilight 4:10 AM EDT 9:07 PM EDT
Astronomical Twilight 3:25 AM EDT 9:52 PM EDT
Moon 9:59 PM EDT (5/16) 7:00 AM EDT (5/16)
Length of Visible Light 15h 37m
Length of Day
14h 34m
Waning Gibbous, 95% of the Moon is Illuminated
May 16
Waning Gibbous
May 21
Last Quarter
May 28
New
Jun 5
First Quarter
Jun 13
Full

Hourly Weather History & Observations

Time (EDT) Temp. Dew Point Humidity Pressure Visibility Wind Dir Wind Speed Gust Speed Precip Events Conditions
12:15 AM 60.8 °F 57.2 °F 88% 30.24 in 10.0 mi South 9.2 mph 17.3 mph N/A   Overcast
12:35 AM 60.8 °F 57.2 °F 88% 30.24 in 10.0 mi South 9.2 mph - N/A   Overcast
12:55 AM 60.8 °F 57.2 °F 88% 30.22 in 10.0 mi SSE 8.1 mph - N/A   Overcast
1:15 AM 60.8 °F 57.2 °F 88% 30.22 in 10.0 mi SSE 11.5 mph - N/A   Overcast
1:35 AM 60.8 °F 57.2 °F 88% 30.21 in 10.0 mi SSE 11.5 mph 17.3 mph N/A   Overcast
1:55 AM 60.8 °F 57.2 °F 88% 30.21 in 10.0 mi South 10.4 mph - N/A   Overcast
2:15 AM 60.8 °F 57.2 °F 88% 30.20 in 10.0 mi SSE 12.7 mph - N/A   Overcast
2:35 AM 59.0 °F 57.2 °F 94% 30.19 in 10.0 mi SSE 11.5 mph - N/A   Mostly Cloudy
3:15 AM 60.8 °F 57.2 °F 88% 30.19 in 10.0 mi South 11.5 mph - N/A   Overcast
3:35 AM 59.0 °F 57.2 °F 94% 30.19 in 10.0 mi SSE 10.4 mph - N/A   Overcast
3:55 AM 59.0 °F 57.2 °F 94% 30.19 in 10.0 mi SSE 10.4 mph - N/A   Overcast
4:15 AM 59.0 °F 57.2 °F 94% 30.19 in 10.0 mi South 10.4 mph - N/A   Overcast
4:35 AM 59.0 °F 57.2 °F 94% 30.19 in 10.0 mi SSE 9.2 mph - N/A   Overcast
4:55 AM 59.0 °F 57.2 °F 94% 30.18 in 10.0 mi SSE 9.2 mph - N/A   Overcast
5:15 AM 59.0 °F 57.2 °F 94% 30.18 in 10.0 mi SSE 10.4 mph - N/A   Overcast
5:55 AM 59.0 °F 57.2 °F 94% 30.17 in 9.0 mi SSE 10.4 mph 16.1 mph N/A   Partly Cloudy
6:15 AM 60.8 °F 57.2 °F 88% 30.18 in 9.0 mi SSE 12.7 mph - N/A   Mostly Cloudy
6:35 AM 60.8 °F 57.2 °F 88% 30.17 in 10.0 mi SSE 13.8 mph - N/A   Overcast
6:55 AM 60.8 °F 57.2 °F 88% 30.17 in 10.0 mi SSE 15.0 mph - N/A   Scattered Clouds
7:15 AM 62.6 °F 59.0 °F 88% 30.16 in 10.0 mi SSE 18.4 mph - N/A   Clear
7:35 AM 64.4 °F 59.0 °F 83% 30.16 in 10.0 mi SSE 16.1 mph 23.0 mph N/A   Clear
7:55 AM 66.2 °F 59.0 °F 78% 30.16 in 10.0 mi SSE 17.3 mph 25.3 mph N/A   Mostly Cloudy
8:15 AM 66.2 °F 59.0 °F 78% 30.16 in 10.0 mi SSE 17.3 mph 27.6 mph N/A   Mostly Cloudy
8:35 AM 68.0 °F 59.0 °F 73% 30.16 in 10.0 mi SSE 18.4 mph 27.6 mph N/A   Mostly Cloudy
8:55 AM 69.8 °F 59.0 °F 68% 30.16 in 10.0 mi South 16.1 mph 31.1 mph N/A   Scattered Clouds
9:15 AM 69.8 °F 59.0 °F 68% 30.15 in 10.0 mi South 18.4 mph 29.9 mph N/A   Overcast
9:35 AM 69.8 °F 59.0 °F 68% 30.14 in 10.0 mi SSE 20.7 mph 28.8 mph N/A   Partly Cloudy
9:55 AM 71.6 °F 59.0 °F 64% 30.14 in 10.0 mi SSE 19.6 mph 31.1 mph N/A   Partly Cloudy
10:15 AM 71.6 °F 59.0 °F 64% 30.14 in 10.0 mi SSE 20.7 mph 29.9 mph N/A   Clear
10:55 AM 71.6 °F 59.0 °F 64% 30.13 in 10.0 mi South 25.3 mph 35.7 mph N/A   Scattered Clouds
11:15 AM 71.6 °F 59.0 °F 64% 30.13 in 10.0 mi SSE 24.2 mph 32.2 mph N/A   Partly Cloudy
11:35 AM 71.6 °F 59.0 °F 64% 30.13 in 10.0 mi South 24.2 mph 32.2 mph N/A   Scattered Clouds
11:55 AM 71.6 °F 59.0 °F 64% 30.13 in 10.0 mi SSE 23.0 mph - N/A   Mostly Cloudy
12:15 PM 73.4 °F 59.0 °F 61% 30.12 in 10.0 mi SSE 25.3 mph 35.7 mph N/A   Scattered Clouds
12:35 PM 71.6 °F 60.8 °F 69% 30.12 in 10.0 mi SSE 23.0 mph 33.4 mph N/A   Partly Cloudy
12:55 PM 73.4 °F 60.8 °F 65% 30.12 in 10.0 mi SSE 28.8 mph 35.7 mph N/A   Partly Cloudy
1:35 PM 69.8 °F 59.0 °F 68% 30.12 in 10.0 mi SSE 19.6 mph 33.4 mph N/A   Overcast
1:55 PM 69.8 °F 59.0 °F 68% 30.11 in 10.0 mi SSE 18.4 mph 29.9 mph N/A   Overcast
2:15 PM 68.0 °F 59.0 °F 73% 30.11 in 8.0 mi SSE 20.7 mph 27.6 mph N/A   Overcast
2:35 PM 68.0 °F 59.0 °F 73% 30.11 in 9.0 mi SSE 18.4 mph 31.1 mph N/A   Overcast
2:55 PM 68.0 °F 59.0 °F 73% 30.10 in 10.0 mi SSE 20.7 mph - N/A   Overcast
3:15 PM 66.2 °F 59.0 °F 78% 30.10 in 10.0 mi SSE 17.3 mph 25.3 mph N/A   Overcast
3:35 PM 66.2 °F 60.8 °F 83% 30.09 in 4.0 mi SSE 18.4 mph 26.5 mph N/A   Haze
3:55 PM 68.0 °F 60.8 °F 78% 30.09 in 9.0 mi SSE 17.3 mph 28.8 mph N/A   Overcast
4:15 PM 66.2 °F 59.0 °F 78% 30.09 in 9.0 mi SSE 17.3 mph - N/A   Overcast
4:35 PM 66.2 °F 60.8 °F 83% 30.09 in 9.0 mi SSE 13.8 mph 25.3 mph N/A   Mostly Cloudy
4:55 PM 66.2 °F 60.8 °F 83% 30.08 in 9.0 mi SSE 15.0 mph 23.0 mph N/A   Overcast
5:15 PM 64.4 °F 60.8 °F 88% 30.08 in 9.0 mi SSE 16.1 mph - N/A   Overcast
5:35 PM 66.2 °F 60.8 °F 83% 30.07 in 9.0 mi SSE 15.0 mph 24.2 mph N/A   Overcast
5:55 PM 66.2 °F 60.8 °F 83% 30.07 in 9.0 mi SSE 18.4 mph 27.6 mph N/A   Overcast
6:15 PM 64.4 °F 60.8 °F 88% 30.07 in 9.0 mi SSE 17.3 mph 31.1 mph N/A   Overcast
6:55 PM 64.4 °F 60.8 °F 88% 30.06 in 8.0 mi SSE 20.7 mph 28.8 mph N/A   Overcast
7:15 PM 64.4 °F 60.8 °F 88% 30.06 in 8.0 mi SSE 16.1 mph 32.2 mph N/A   Overcast
7:35 PM 64.4 °F 60.8 °F 88% 30.06 in 7.0 mi SSE 23.0 mph - N/A   Overcast
7:55 PM 64.4 °F 60.8 °F 88% 30.07 in 9.0 mi SSE 16.1 mph 24.2 mph N/A   Overcast
8:15 PM 64.4 °F 60.8 °F 88% 30.07 in 10.0 mi SSE 20.7 mph 35.7 mph N/A   Overcast
8:35 PM 64.4 °F 60.8 °F 88% 30.07 in 9.0 mi SSE 18.4 mph 31.1 mph N/A   Overcast
8:55 PM 64.4 °F 60.8 °F 88% 30.08 in 8.0 mi SSE 17.3 mph 31.1 mph N/A   Overcast
9:15 PM 64.4 °F 60.8 °F 88% 30.07 in 8.0 mi SSE 20.7 mph 28.8 mph N/A   Overcast
9:35 PM 64.4 °F 60.8 °F 88% 30.07 in 9.0 mi SSE 20.7 mph 32.2 mph N/A   Overcast
9:55 PM 64.4 °F 60.8 °F 88% 30.07 in 8.0 mi SSE 19.6 mph 29.9 mph N/A   Mostly Cloudy
10:15 PM 64.4 °F 60.8 °F 88% 30.06 in 9.0 mi SSE 20.7 mph 26.5 mph N/A   Overcast
10:35 PM 64.4 °F 60.8 °F 88% 30.05 in 7.0 mi SSE 21.9 mph 29.9 mph N/A   Overcast
10:55 PM 64.4 °F 60.8 °F 88% 30.04 in 8.0 mi SSE 21.9 mph - N/A   Overcast
11:15 PM 64.4 °F 60.8 °F 88% 30.03 in 9.0 mi SSE 23.0 mph 33.4 mph N/A   Overcast
11:55 PM 64.4 °F 60.8 °F 88% 30.03 in 8.0 mi SSE 20.7 mph 31.1 mph N/A   Overcast